Regional Weather Roundup
Issued by NWS New Orleans/Baton Rouge, LA

Home | Current Version | Previous Version | Graphics & Text | Print | Product List | Glossary On
Versions: 1 2 3 4 5 6 7 8 9 10 11 12 13 14 15 16 17 18 19 20 21 22 23 24 25 26 27 28 29 30 31 32 33 34 35 36 37 38 39 40 41 42 43 44 45 46 47 48 49 50
962
ASUS44 KLIX 292101
RWRLIX
NEW ORLEANS REGIONAL WEATHER ROUNDUP
NATIONAL WEATHER SERVICE NEW ORLEANS LA
300 PM CST THU JAN 29 2015

NOTE: "FAIR" INDICATES FEW OR NO CLOUDS BELOW 12,000 FEET WITH NO
      SIGNIFICANT WEATHER AND/OR OBSTRUCTIONS TO VISIBILITY.
      SKY/WX - SKY CONDITION AND SIGNIFICANT WEATHER.
      TMP - AIR TEMPERATURE.     DP    - DEWPOINT TEMPERATURE.
      RH  - RELATIVE HUMIDITY.   PRES  - PRESSURE.
      HI  - HEAT INDEX.          WCI   - WIND CHILL INDEX.

*  THESE STATIONS ARE NOT NWS OR FAA STATIONS AND ARE NOT UNDER
   NWS QUALITY CONTROL.

LAZ038-040-048-061>063-065>067-069-292200-
SOUTHEAST LOUISIANA

CITY           SKY/WX    TMP DP  RH WIND       PRES   REMARKS
N.O. AUDUBON     N/A     73  58  60 MISG        N/A
N.O. INTL ARPT MOSUNNY   77  54  44 W14       30.18F
N.O. LAKEFRONT MOSUNNY   71  56  58 NE7       30.19F
N.O. DOWNTOWN* NOT AVBL
SLIDELL        SUNNY     74  55  51 SW10G18   30.18F
BATON ROUGE    SUNNY     78  52  40 SW10      30.17F
BOOTHVILLE     SUNNY     70  56  61 S9        30.22F
BELLE CHASSE   PTSUNNY   76  55  48 SW8       30.19F
BOGALUSA*        N/A     78  53  40 SW9G18    30.17F
GALLIANO*      NOT AVBL
NEW ROADS*     NOT AVBL
GONZALES*      NOT AVBL
HAMMOND*       NOT AVBL
HOUMA*         NOT AVBL
PORT FOURCHON* CLEAR     72  61  68 S8        30.25S

$$

MSZ070-080>082-292200-
SOUTHERN MISSISSIPPI

CITY           SKY/WX    TMP DP  RH WIND       PRES   REMARKS
MCCOMB         SUNNY     76  48  37 SW8       30.14F
GULFPORT       SUNNY     67  54  63 S8        30.19F
BILOXI         SUNNY     67  55  64 S8        30.20F
PASCAGOULA     SUNNY     69  53  56 S8G17     30.20F
STENNIS ARPT*  MOSUNNY   73  52  46 SW12G17   30.19

$$

COASTAL OBSERVATIONS
LAKE AND NEARSHORE STATIONS

STATION/POSITION TIME  TEMP    WIND        PRES    WAVE
                       AIR SEA DIR/SP/G            HT/PER
                 (UTC) (F)     (DEG/KT/KT) (MB)    (FT/S)
PASCAGOULA       2023   66     180/  6/  9 1022.7
WAVELAND YACHT   2023   61     160/  8/ 10 1021.7
GRAND ISLE       2023   70 63  170/  3/  7 1023.8
SOUTHWEST PASS   2023   79 46  150/  2/  3 1023.8
NEW CANAL        2023   65 55   50/  1/  2 1022.6
SHELL BEACH      2023   71 57  200/ 11/ 13 1022.5

OFFSHORE STATIONS

STATION/POSITION TIME  TEMP    WIND        PRES    WAVE
                       AIR SEA DIR/SP/G            HT/PER
                 (UTC) (F)     (DEG/KT/KT) (MB)    (FT/S)
64 S DAUPHIN ISL 2046   68 70  220/  8/ 10 1023.7    2/ 5

$$




USA.gov is the U.S. government's official web portal to all federal, state and local government web resources and services.